CDT,Max TemperatureF,Mean TemperatureF,Min TemperatureF,Max Dew PointF,MeanDew PointF,Min DewpointF,Max Humidity, Mean Humidity, Min Humidity, Max Sea Level PressureIn, Mean Sea Level PressureIn, Min Sea Level PressureIn, Max VisibilityMiles, Mean VisibilityMiles, Min VisibilityMiles, Max Wind SpeedMPH, Mean Wind SpeedMPH, Max Gust SpeedMPH,PrecipitationIn, CloudCover, Events, WindDirDegrees
2014-4-1,42,32,21,31,21,13,82,70,57,30.11,29.95,29.76,10,10,10,36,15,45,0.00,5,,279
2014-4-2,50,40,30,35,31,27,92,73,54,30.14,30.04,29.90,10,10,6,31,15,37,T,4,Rain,67
2014-4-3,47,42,36,42,39,34,100,93,85,29.89,29.72,29.55,10,4,1,28,15,32,0.18,8,Rain-Thunderstorm,90
2014-4-4,41,35,28,38,32,27,100,82,64,30.14,29.74,29.52,10,6,2,37,20,49,0.05,8,Rain-Snow,334
2014-4-5,54,39,24,30,27,24,100,66,32,30.21,30.14,30.06,10,8,2,14,7,19,0.00,1,,196
2014-4-6,63,50,36,47,38,29,86,66,46,30.06,29.96,29.88,10,10,9,18,9,23,T,6,,187
2014-4-7,62,49,35,44,39,32,92,68,44,29.87,29.78,29.72,10,9,2,26,8,31,0.09,5,Rain-Thunderstorm,333
2014-4-8,55,44,33,36,34,30,92,68,43,30.06,29.94,29.81,10,10,8,23,14,35,0.00,1,,317
2014-4-9,71,49,27,36,31,27,92,57,22,30.04,29.88,29.66,10,10,7,31,15,38,0.00,0,,206
2014-4-10,65,54,42,41,31,22,77,50,22,30.01,29.82,29.58,10,10,10,29,14,34,0.00,0,,327
2014-4-11,75,54,32,32,29,25,82,50,17,30.02,29.96,29.89,10,10,8,26,10,35,0.00,1,,199
2014-4-12,84,68,52,58,49,32,93,65,36,29.88,29.64,29.50,10,8,0,38,14,47,2.21,4,Fog-Rain-Thunderstorm,141
2014-4-13,57,45,33,55,46,33,100,95,89,29.71,29.63,29.54,10,4,0,40,22,50,1.83,8,Fog-Rain-Snow-Thunderstorm,22
2014-4-14,37,32,26,32,27,19,100,76,52,30.15,29.92,29.71,10,6,1,39,21,47,0.02,6,Snow,338
2014-4-15,40,32,23,25,18,9,88,64,40,30.23,30.15,30.06,10,10,10,17,9,22,0.00,0,,290
2014-4-16,60,47,34,40,30,22,70,52,33,30.05,29.90,29.79,10,10,10,36,22,47,T,4,Rain,161
2014-4-17,49,40,31,40,31,28,92,73,54,30.34,30.19,29.90,10,10,8,24,13,30,0.00,5,,317
2014-4-18,61,44,27,33,30,25,92,61,29,30.39,30.30,30.20,10,8,4,15,8,22,0.00,0,,110
2014-4-19,75,58,41,45,40,31,82,57,31,30.23,30.13,30.04,10,10,6,26,16,36,0.00,2,,158
2014-4-20,81,67,53,54,49,41,77,59,40,30.07,30.00,29.90,10,10,5,23,12,28,0.12,5,Rain-Thunderstorm,176
2014-4-21,70,57,44,59,51,38,93,62,31,30.03,29.94,29.91,10,10,9,29,12,37,T,5,,310
2014-4-22,62,48,34,37,33,31,89,62,35,30.14,30.08,30.04,10,10,10,23,11,28,0.00,0,,353
2014-4-23,52,48,43,40,36,30,83,64,44,30.11,30.00,29.86,10,10,10,28,17,36,0.13,6,Rain,119
2014-4-24,53,47,41,52,45,39,100,88,76,29.84,29.69,29.65,10,7,2,29,14,37,0.41,7,Rain-Thunderstorm,190
2014-4-25,72,55,37,47,40,35,100,64,27,29.85,29.81,29.78,10,7,0,17,7,20,0.00,0,Fog,265
2014-4-26,70,57,44,44,41,38,83,61,39,29.90,29.82,29.72,10,10,10,33,20,40,0.03,1,,90
2014-4-27,63,52,41,54,46,34,93,77,60,29.83,29.61,29.45,10,8,0,38,24,44,0.91,7,Fog-Rain-Thunderstorm,98
2014-4-28,54,51,48,52,50,48,100,97,93,29.52,29.40,29.32,8,3,1,32,21,39,0.32,8,Rain-Thunderstorm,90
2014-4-29,49,43,36,48,44,34,100,96,92,29.72,29.50,29.41,10,4,1,22,14,26,0.09,8,Rain,33
2014-4-30,41,39,36,40,37,33,100,93,85,29.81,29.76,29.72,10,9,4,21,15,26,0.35,8,Rain,295